Location: ??????
(55.2000°N, 38.3000°E)
Time: 08:48:00
(UTC+00:00)

Cosmos 1954 Rocket - Pass Details

Date: 15 November 2025
Orbit: 749 x 776 km, 74.0° (Epoch: 14 December)

Event Time Altitude Azimuth Distance (km) Brightness Sun altitude
Exits shadow 02:07:38 67° 240° (WSW) 823 3.8 -24.2°
Drops below altitude 10° 02:12:38 10° 166° (SSE) 2,270 6.6 -23.5°
Sets 02:14:59 0° 164° (SSE) 3,188 7.4 -23.1°
